Temperature
23 24 25 25 25 25 23 22 21 21 21 21 21 21 21 22 22 21 21 21 20 20 20 19 19 18 18 18 18 17 17 17 17 16 16 16 16 16 15 15 15 15 15 15
23 25 25 25 25 25 24 24 22 22 21 21 21 22 21 21 21 20 20 20 20 20 19 19 19 18 18 18 17 17 17 16 16 16 16 16 15 15 15 15 15 15 15 15
21 23 23 23 24 24 23 23 22 21 21 20 20 21 21 21 21 20 20 20 20 20 19 19 18 18 18 17 17 17 16 16 16 16 16 15 15 15 15 14 14 14 14 14
19 22 23 22 23 24 23 22 22 21 21 21 21 21 21 21 21 20 20 20 20 20 19 19 18 18 18 17 17 17 16 16 16 15 15 15 15 14 14 14 14 14 14 14
18 20 21 23 23 23 22 21 21 21 20 21 21 20 20 21 21 21 20 20 19 19 19 19 18 18 17 17 17 16 16 16 15 15 15 15 14 14 14 14 14 14 14 14
19 21 21 22 23 24 22 20 21 20 20 20 20 18 18 20 20 20 20 19 19 19 19 18 18 17 17 17 16 16 16 15 15 15 15 14 14 14 14 13 13 13 13 13
19 20 20 21 23 23 21 20 21 21 20 20 19 19 20 20 20 19 19 19 19 18 18 18 17 17 17 16 16 16 15 15 15 15 14 14 14 14 13 13 13 13 13 13
18 19 19 21 22 20 20 21 21 21 21 20 20 20 20 19 19 19 19 18 18 18 17 17 17 16 16 16 16 15 15 15 15 14 14 14 14 14 13 13 13 13 13 13
17 18 20 22 22 22 22 21 21 21 21 21 20 19 19 19 19 18 18 18 18 17 17 16 16 16 16 15 15 15 15 14 14 14 14 14 14 13 13 13 13 13 13 13
17 18 20 21 22 22 22 22 22 22 21 21 20 19 19 19 18 18 18 17 17 17 16 16 16 15 15 15 15 14 14 14 14 14 13 13 13 13 13 13 13 13 12 12
17 18 20 21 21 22 22 21 21 21 21 20 20 19 19 18 18 18 17 17 16 16 16 16 15 15 15 15 14 14 14 13 13 13 13 13 13 13 13 13 12 12 12 12
17 18 18 20 21 21 21 21 20 20 20 20 20 19 19 18 18 17 17 16 16 16 16 15 15 15 15 14 14 14 13 13 13 13 13 13 13 13 12 12 12 12 12 12
21 21 21 21 21 21 20 20 20 20 19 19 19 19 18 18 17 17 16 16 16 16 15 15 15 14 14 14 14 13 13 13 13 13 13 12 12 12 12 12 12 12 12 12
21 21 20 20 20 20 20 20 20 19 19 19 18 18 18 17 17 16 16 16 15 15 15 14 14 14 14 14 13 13 13 13 12 12 12 12 12 12 12 12 12 12 11 11
20 20 20 20 20 20 20 19 19 19 18 18 18 18 17 17 17 16 16 15 15 15 14 14 14 14 13 13 13 13 12 12 12 12 12 12 12 12 12 11 11 11 11 11
20 20 20 19 19 19 19 19 19 18 18 18 18 17 17 17 16 16 15 15 15 14 14 14 13 13 13 13 12 12 12 12 12 12 12 11 11 11 11 11 11 11 11 10
20 19 19 19 19 19 19 19 18 18 18 18 17 17 17 16 16 15 15 14 14 14 14 13 13 13 12 12 12 12 12 12 12 12 11 11 11 11 11 11 10 10 10 10
20 19 19 19 19 18 18 18 18 18 18 17 17 17 16 16 15 15 14 14 14 13 13 13 13 12 12 12 12 12 11 11 11 11 11 11 11 11 10 10 10 10 10 10
19 19 18 18 18 18 18 18 18 17 17 17 17 16 16 15 15 14 14 14 13 13 13 13 12 12 12 12 12 11 11 11 11 11 11 11 10 10 10 10 10 10 10 10
18 18 18 18 18 18 17 17 17 17 17 16 16 16 15 15 14 14 14 13 13 13 12 12 12 12 12 12 11 11 11 11 11 11 10 10 10 10 10 10 9 9 9 9
18 18 17 17 17 17 17 17 16 16 16 16 15 15 15 14 14 14 13 13 13 12 12 12 12 12 11 11 11 11 11 11 11 10 10 10 10 10 9 9 9 9 9 9
17 17 17 17 17 16 16 16 16 16 15 15 15 15 14 14 14 13 13 13 12 12 12 12 12 11 11 11 11 11 11 10 10 10 10 10 9 9 9 9 9 9 8 8
16 16 16 16 16 16 16 15 15 15 15 15 14 14 14 14 13 13 13 12 12 12 12 11 11 11 11 11 11 10 10 10 10 10 9 9 9 9 9 9 8 8 8 8
15 15 15 15 15 15 15 15 15 15 15 14 14 14 14 14 13 13 13 12 12 12 11 11 11 11 10 10 10 10 10 10 9 9 9 9 9 9 8 8 8 8 8 8
15 15 15 15 15 15 15 15 15 14 14 14 14 14 13 13 13 13 12 12 12 11 11 11 11 10 10 10 10 10 9 9 9 9 9 9 8 8 8 8 8 8 8 8
15 15 15 15 15 14 15 15 14 14 14 14 13 13 13 13 13 12 12 12 11 11 11 11 10 10 10 10 10 9 9 9 9 9 8 8 8 8 8 8 8 8 7 7
14 14 14 14 14 14 14 14 14 14 14 14 14 13 13 13 12 12 12 12 11 11 11 10 10 10 10 10 9 9 9 9 9 8 8 8 8 8 8 7 7 7 7 7
Wind_Speed
3 3 1 3 3 1 3 6 7 7 7 9 9 9 8 7 8 8 7 7 7 6 6 6 5 4 4 4 3 4 4 3 2 1 1 1 1 0 1 0 1 1 2 2
3 3 4 4 2 1 1 2 5 6 3 5 5 6 6 7 9 9 8 8 7 7 6 6 5 5 5 4 4 4 4 3 2 1 1 1 1 1 0 1 1 1 1 1
2 4 4 4 3 2 2 3 6 6 6 7 7 7 8 8 7 8 9 8 8 7 6 6 5 6 5 5 4 4 4 3 2 2 1 1 0 1 1 1 0 0 1 1
1 4 1 6 3 3 5 4 3 4 6 10 9 7 5 6 7 7 7 7 7 6 6 5 5 5 5 4 4 4 3 2 1 2 1 1 1 1 1 1 1 1 1 1
3 2 3 4 4 0 4 3 2 6 8 7 8 8 4 2 5 6 6 6 6 6 6 5 5 5 5 4 3 3 3 2 2 2 1 1 2 2 1 1 1 1 1 1
4 3 4 5 5 1 7 2 1 5 8 7 7 4 2 2 5 6 5 5 5 5 5 5 4 5 6 4 3 2 3 3 2 2 2 2 2 2 1 1 1 1 1 1
4 3 4 5 5 3 4 5 4 6 8 8 5 5 5 4 5 5 5 4 5 5 4 3 4 5 5 4 2 2 2 2 2 2 3 2 2 1 1 1 1 1 1 2
3 3 5 5 2 3 5 4 5 6 7 7 6 5 5 6 6 6 5 4 5 5 3 2 3 5 4 3 3 2 2 2 1 2 2 1 1 1 1 1 1 1 1 2
5 6 6 3 3 4 6 5 4 6 7 9 8 6 6 6 6 5 5 4 4 5 4 2 2 4 4 3 2 2 2 1 2 2 2 1 1 1 1 1 1 1 1 1
1 2 0 2 3 4 5 6 4 6 8 8 8 7 6 6 5 5 4 4 4 5 4 1 1 2 3 3 2 2 2 2 2 2 2 1 1 1 1 1 1 1 1 2
1 2 1 1 2 3 4 6 6 6 6 8 9 7 6 6 5 4 4 3 4 4 4 2 2 2 2 2 2 2 2 1 1 1 2 1 1 2 2 3 3 3 3 3
6 6 4 4 3 3 5 5 6 5 4 5 7 8 6 6 5 5 4 4 4 3 3 2 2 1 1 2 2 2 1 2 2 1 1 1 1 2 3 3 3 3 4 4
5 4 4 3 2 3 5 5 5 5 6 6 4 6 6 5 4 4 4 4 4 4 3 2 2 2 2 2 2 2 2 2 2 2 2 2 2 2 2 4 4 3 3 4
1 3 2 1 2 3 5 5 5 5 6 6 6 5 5 4 4 5 4 4 4 4 3 3 2 3 3 2 1 2 2 3 3 3 3 3 3 3 3 2 3 4 4 5
1 2 3 2 4 5 5 7 7 6 6 4 5 5 5 5 5 5 4 4 4 3 3 3 2 2 2 1 1 2 2 2 3 3 2 2 2 2 2 3 3 3 3 4
2 1 4 5 6 6 5 7 7 6 5 5 5 5 5 5 5 4 4 4 5 4 3 2 2 3 2 2 2 2 2 3 2 1 1 1 1 1 2 2 2 2 3 3
3 3 4 4 5 5 5 6 7 6 5 5 5 6 5 5 4 3 2 3 4 3 3 2 2 2 2 2 1 1 1 1 1 1 1 2 2 2 2 2 3 3 4 4
4 6 7 7 6 6 5 5 6 6 6 5 5 5 5 5 5 4 3 3 2 1 1 2 2 1 1 1 1 1 1 1 1 1 1 1 2 2 2 2 2 3 3 4
3 4 4 4 5 6 6 6 6 6 5 6 6 6 5 4 4 4 3 4 3 1 3 2 1 1 1 1 1 1 1 1 1 1 1 1 1 1 2 2 3 3 3 3
4 4 4 4 5 5 5 5 6 5 5 5 6 6 5 4 4 4 4 3 3 3 2 2 1 1 1 1 1 1 1 1 1 1 1 1 1 2 2 2 2 3 3 3
5 5 5 6 6 5 5 6 7 6 4 4 5 6 5 4 4 4 4 2 2 1 2 2 1 1 1 1 0 0 1 1 1 1 1 1 1 2 2 2 3 3 3 3
4 5 5 5 6 5 5 5 6 6 5 4 4 5 5 4 3 2 2 3 3 3 2 1 1 1 1 0 0 0 0 1 1 1 1 1 1 2 2 3 3 3 3 3
4 4 4 4 5 5 5 4 5 6 5 4 4 4 4 4 3 3 2 2 2 3 2 1 1 1 1 0 0 0 0 0 1 1 1 2 2 3 3 3 3 3 3 4
4 4 3 3 4 5 3 2 3 4 5 4 4 4 4 3 1 2 2 3 4 3 2 1 2 1 2 1 1 1 1 0 0 1 2 2 2 2 3 3 3 3 3 4
3 3 3 3 3 2 3 3 3 3 4 3 3 3 3 3 3 2 2 3 3 3 1 1 2 2 1 1 1 1 0 0 1 1 2 2 2 3 3 3 3 3 3 3
2 2 2 3 3 3 3 4 4 3 3 3 2 2 2 2 3 3 2 2 2 2 1 1 2 1 1 1 1 1 1 1 2 2 2 2 3 3 3 3 4 3 3 3
0 0 1 1 1 2 3 4 4 4 4 4 3 2 3 3 3 3 3 2 2 2 1 1 1 1 2 2 1 2 1 1 2 2 2 2 2 3 3 3 3 3 3 3
Wind_Direction
216 238 266 284 284 217 158 174 178 201 187 200 187 168 159 157 150 146 146 145 148 152 152 147 145 144 140 141 143 137 130 134 160 171 135 114 100 40 4 16 45 44 40 10
346 329 353 345 327 229 200 145 146 142 193 202 162 138 137 147 151 151 155 156 157 154 150 152 155 149 144 144 150 139 138 164 181 148 121 140 189 176 90 44 42 54 43 355
284 312 16 341 298 141 107 121 140 172 202 160 145 147 148 146 143 149 157 160 161 161 160 160 155 149 151 158 154 146 155 165 168 159 153 196 229 192 198 201 120 14 294 297
138 30 272 250 276 104 105 78 108 138 143 151 150 143 134 138 142 145 145 152 157 152 146 145 144 142 141 137 143 148 153 157 164 173 194 215 201 223 238 233 228 264 291 287
122 165 274 304 322 43 112 54 61 126 128 127 117 89 64 103 136 147 147 145 146 148 145 142 141 139 127 122 133 143 163 180 191 192 204 218 229 243 234 222 254 263 265 290
133 153 218 250 286 188 101 78 288 120 128 125 109 115 208 186 124 121 116 123 130 132 126 133 150 137 127 128 126 154 188 193 196 191 194 216 232 240 241 222 243 256 287 288
150 183 246 260 289 53 114 211 214 146 143 140 148 176 178 140 114 114 118 120 120 117 120 139 141 130 128 136 166 198 179 172 189 201 204 212 220 234 262 256 261 256 266 293
140 160 243 277 58 135 195 190 156 147 148 143 143 134 130 130 132 131 125 120 120 118 115 122 128 128 132 165 199 172 139 142 187 226 225 211 204 239 263 254 262 269 286 313
177 204 232 241 159 169 148 136 146 151 158 149 140 141 137 133 133 133 131 130 125 125 120 110 129 138 150 191 188 143 137 178 214 232 243 228 206 238 265 267 247 269 272 287
120 271 280 76 92 103 123 132 142 144 147 142 141 145 136 137 134 132 133 135 128 123 128 151 170 157 176 190 177 154 170 217 237 237 260 274 259 227 242 253 234 238 250 276
218 244 56 49 111 127 113 111 111 117 137 149 145 148 146 144 147 147 142 141 140 146 151 165 164 164 196 198 172 171 202 228 241 230 220 234 264 260 243 245 220 209 218 217
220 226 185 212 199 138 125 130 131 126 122 145 148 149 146 149 154 149 145 139 138 144 152 165 170 211 235 211 177 171 208 242 231 222 225 219 228 305 304 264 277 249 224 215
208 206 177 192 164 130 132 138 139 136 140 136 135 141 142 143 144 141 139 143 154 162 166 171 189 234 252 231 188 189 211 229 230 220 223 230 228 228 279 311 319 306 279 267
144 107 90 156 145 140 135 132 127 119 120 130 136 133 132 131 135 139 152 164 160 156 165 180 195 231 245 227 195 214 231 243 235 227 224 226 227 229 230 243 285 295 291 280
216 148 165 156 115 110 113 114 113 115 119 129 141 139 137 141 151 160 164 152 139 140 158 169 190 234 239 207 205 238 252 251 241 237 230 226 229 235 245 251 254 269 300 304
204 116 133 136 131 133 129 127 131 140 145 153 154 152 150 148 151 154 157 152 149 161 172 171 206 240 216 204 219 247 254 261 255 226 216 221 232 232 247 254 256 256 264 275
158 169 164 159 150 150 153 147 150 156 158 161 161 151 140 132 132 140 158 167 160 169 181 188 224 251 222 203 211 241 250 259 286 286 226 224 231 234 231 233 243 256 265 266
177 177 171 169 161 153 149 144 148 151 158 168 152 138 138 144 157 167 173 151 124 109 225 217 216 237 243 220 198 188 194 229 239 239 242 240 240 241 235 237 255 268 281 287
142 139 143 147 149 148 148 151 155 152 145 140 142 145 152 158 157 153 145 133 136 202 270 261 209 179 241 229 175 178 201 240 267 273 256 254 253 257 255 259 269 279 280 283
125 120 115 113 116 120 127 138 141 139 139 136 135 132 137 147 147 146 143 154 193 215 237 246 233 245 257 244 196 183 200 229 238 257 270 264 271 278 269 268 273 277 280 278
121 114 110 115 110 106 114 127 134 136 132 133 141 148 150 152 151 146 147 170 251 212 188 185 191 229 248 266 295 119 147 179 223 232 251 257 268 281 282 280 282 284 285 283
107 112 119 125 118 115 120 123 132 132 124 126 137 141 138 141 147 148 178 192 208 185 172 189 214 212 207 111 67 99 164 209 237 248 258 272 276 277 278 281 283 288 288 284
108 106 108 118 127 127 117 120 132 135 139 148 156 159 162 170 169 164 205 231 187 170 162 186 214 188 169 103 94 115 162 232 246 255 263 266 271 274 274 279 283 286 286 285
118 124 122 115 108 108 113 141 136 139 151 160 165 166 163 160 177 207 191 175 168 158 164 193 191 172 129 85 85 74 52 31 321 294 282 278 280 284 285 284 287 291 288 287
134 130 122 114 120 153 172 150 123 132 141 142 148 157 161 160 164 183 157 151 155 146 152 185 195 197 155 112 125 129 148 291 291 295 305 300 294 289 285 284 281 282 285 287
154 157 168 174 177 183 173 155 151 163 157 153 169 178 154 137 137 132 129 142 150 154 176 215 228 215 195 194 205 211 241 279 296 295 291 289 297 299 298 296 293 290 287 285
243 196 160 162 199 183 173 166 164 174 176 170 173 180 161 146 140 143 146 155 174 191 215 231 230 210 202 204 214 225 245 262 275 281 285 288 295 299 297 295 293 292 297 299
Height
1503 1498 1497 1498 1498 1498 1503 1509 1518 1515 1514 1509 1505 1506 1507 1509 1511 1513 1515 1516 1517 1518 1519 1519 1520 1521 1521 1521 1521 1521 1521 1520 1520 1519 1518 1518 1517 1517 1516 1515 1515 1514 1513 1512
1503 1496 1496 1498 1496 1495 1497 1499 1504 1507 1510 1503 1503 1505 1507 1509 1510 1512 1513 1515 1516 1517 1518 1519 1520 1520 1520 1520 1520 1520 1520 1519 1518 1518 1517 1516 1516 1515 1514 1514 1513 1512 1511 1511
1515 1504 1501 1511 1500 1497 1498 1496 1499 1507 1505 1501 1504 1505 1506 1508 1510 1511 1512 1514 1516 1516 1517 1518 1519 1519 1519 1520 1520 1519 1519 1518 1517 1517 1516 1515 1515 1514 1513 1512 1512 1511 1510 1509
1517 1514 1523 1511 1493 1491 1494 1497 1495 1497 1498 1499 1501 1505 1507 1508 1509 1511 1512 1514 1515 1516 1516 1517 1518 1519 1519 1519 1519 1518 1517 1517 1516 1516 1515 1514 1513 1512 1512 1511 1510 1509 1509 1508
1522 1524 1518 1503 1494 1493 1498 1504 1497 1497 1499 1501 1503 1506 1509 1510 1510 1511 1512 1513 1514 1515 1516 1517 1517 1518 1518 1518 1517 1517 1516 1516 1515 1515 1514 1513 1512 1511 1511 1510 1509 1507 1507 1506
1517 1521 1525 1508 1492 1489 1495 1510 1500 1497 1500 1502 1504 1511 1512 1510 1510 1511 1512 1513 1514 1515 1515 1516 1516 1516 1516 1516 1516 1515 1515 1514 1514 1513 1513 1512 1511 1510 1510 1509 1508 1507 1506 1505
1515 1518 1513 1497 1490 1489 1508 1510 1499 1497 1499 1501 1503 1506 1508 1509 1510 1511 1512 1513 1513 1514 1514 1515 1515 1515 1515 1515 1514 1514 1514 1513 1513 1512 1512 1511 1510 1509 1509 1508 1507 1505 1504 1503
1515 1519 1516 1492 1490 1496 1499 1495 1496 1497 1497 1499 1501 1504 1506 1508 1509 1510 1511 1512 1513 1513 1513 1514 1514 1514 1514 1513 1513 1513 1512 1512 1511 1511 1510 1510 1509 1508 1507 1506 1505 1503 1502 1501
1505 1507 1495 1491 1489 1490 1491 1492 1494 1495 1497 1498 1501 1504 1505 1506 1508 1509 1510 1511 1512 1512 1512 1513 1513 1513 1512 1512 1512 1511 1511 1510 1510 1509 1509 1508 1507 1506 1505 1504 1503 1501 1500 1499
1498 1495 1492 1491 1490 1490 1491 1492 1493 1494 1496 1497 1499 1502 1503 1505 1507 1508 1509 1510 1510 1511 1511 1511 1511 1511 1511 1511 1510 1510 1509 1509 1508 1508 1507 1506 1506 1504 1503 1502 1500 1500 1499 1497
1496 1492 1491 1490 1490 1491 1491 1492 1493 1495 1496 1497 1499 1501 1502 1504 1505 1507 1508 1509 1509 1509 1509 1510 1510 1509 1509 1509 1509 1508 1507 1507 1506 1505 1505 1504 1503 1502 1501 1500 1499 1498 1497 1496
1495 1489 1489 1490 1490 1491 1491 1492 1493 1495 1497 1498 1499 1500 1501 1503 1504 1505 1506 1507 1508 1508 1508 1508 1508 1507 1507 1507 1506 1506 1505 1504 1504 1503 1502 1502 1501 1500 1499 1498 1497 1496 1495 1494
1485 1486 1486 1488 1489 1489 1490 1491 1492 1494 1495 1496 1498 1499 1500 1501 1503 1504 1505 1505 1505 1506 1506 1506 1505 1505 1505 1504 1504 1503 1502 1501 1501 1500 1499 1499 1498 1497 1496 1495 1494 1493 1492 1491
1484 1485 1486 1487 1487 1488 1489 1490 1492 1493 1494 1496 1497 1499 1500 1501 1502 1503 1503 1504 1504 1504 1504 1504 1503 1503 1502 1502 1501 1500 1499 1498 1498 1497 1497 1496 1495 1494 1494 1492 1491 1490 1489 1489
1483 1484 1485 1485 1486 1487 1487 1489 1490 1492 1494 1495 1496 1497 1498 1499 1500 1500 1501 1502 1502 1502 1502 1501 1500 1500 1500 1499 1498 1497 1496 1495 1495 1494 1494 1493 1492 1491 1490 1489 1488 1487 1486 1485
1482 1483 1484 1484 1485 1486 1487 1488 1489 1491 1492 1493 1494 1495 1496 1497 1498 1498 1499 1499 1499 1499 1499 1499 1498 1498 1497 1496 1495 1493 1493 1492 1492 1491 1490 1490 1489 1488 1487 1486 1485 1484 1483 1482
1479 1481 1482 1483 1484 1484 1485 1486 1487 1489 1491 1492 1492 1493 1494 1494 1495 1496 1496 1496 1497 1497 1497 1496 1496 1495 1494 1493 1492 1491 1490 1490 1489 1488 1487 1487 1486 1485 1484 1484 1483 1482 1481 1480
1477 1478 1480 1481 1481 1483 1484 1486 1487 1488 1489 1490 1491 1492 1492 1492 1492 1493 1493 1493 1494 1494 1494 1494 1493 1492 1491 1491 1490 1489 1488 1487 1486 1485 1485 1484 1483 1483 1482 1481 1480 1479 1478 1477
1475 1477 1478 1479 1480 1481 1482 1483 1484 1486 1486 1487 1489 1489 1490 1491 1491 1491 1491 1491 1491 1491 1492 1491 1490 1490 1489 1488 1487 1486 1486 1485 1484 1483 1482 1482 1481 1480 1479 1478 1477 1476 1475 1473
1474 1475 1477 1478 1479 1480 1481 1482 1483 1484 1485 1486 1487 1487 1488 1488 1489 1489 1489 1489 1489 1489 1489 1489 1488 1487 1486 1485 1484 1484 1483 1482 1482 1481 1480 1479 1478 1477 1476 1475 1474 1473 1471 1470
1473 1474 1475 1476 1477 1478 1479 1480 1482 1483 1484 1485 1486 1486 1487 1487 1487 1487 1487 1487 1487 1487 1487 1486 1486 1485 1484 1483 1483 1482 1481 1480 1479 1478 1477 1476 1475 1474 1473 1472 1471 1469 1468 1466
1472 1473 1474 1475 1476 1477 1478 1480 1481 1481 1483 1484 1485 1485 1486 1486 1486 1486 1486 1486 1485 1485 1485 1484 1483 1483 1482 1481 1480 1479 1478 1478 1477 1476 1475 1474 1472 1471 1470 1468 1467 1465 1464 1462
1471 1472 1473 1475 1475 1476 1477 1479 1480 1481 1482 1483 1484 1484 1484 1484 1484 1484 1484 1484 1484 1483 1483 1482 1482 1481 1480 1479 1478 1477 1476 1476 1474 1473 1472 1471 1470 1468 1467 1465 1463 1462 1460 1458
1472 1472 1474 1475 1475 1476 1477 1478 1479 1480 1481 1482 1483 1484 1483 1483 1483 1483 1483 1483 1482 1482 1481 1481 1480 1479 1478 1477 1476 1475 1475 1474 1472 1471 1470 1469 1467 1466 1464 1462 1460 1458 1456 1454
1472 1473 1473 1474 1475 1476 1477 1478 1478 1479 1480 1481 1481 1482 1482 1482 1482 1482 1481 1481 1481 1480 1480 1479 1478 1477 1477 1476 1475 1474 1473 1472 1471 1469 1467 1466 1464 1462 1461 1459 1457 1455 1453 1451
1471 1472 1472 1473 1474 1475 1476 1477 1477 1478 1480 1480 1480 1481 1481 1480 1480 1480 1480 1479 1479 1479 1478 1477 1477 1476 1475 1474 1473 1472 1471 1470 1469 1467 1465 1463 1461 1459 1457 1455 1453 1451 1449 1447
1471 1472 1472 1473 1474 1474 1475 1476 1476 1477 1478 1478 1479 1479 1479 1479 1479 1478 1478 1478 1477 1477 1477 1476 1475 1474 1473 1473 1472 1471 1469 1468 1466 1465 1463 1461 1459 1456 1454 1452 1450 1448 1446 1444